星链-35407(STARLINK-35407)

导读

STARLINK-35407是美国于2025年11月6日发射的卫星,隶属于SpaceX星链星座,星链星座旨在为全球提供高速卫星互联网服务。该卫星延续了星链星座批量部署的模式,依托成熟箭体技术入轨,进一步扩充了星链低轨卫星网络规模,提升星座全球覆盖密度与服务能力,支撑星链通信服务的持续扩容升级。

基本信息
目录编号:
66334
目录名称:
STARLINK-35407
国际标识:
2025-253R
轨道中心:
EARTH
卫星名称:
星链-35407
卫星全名:
星链-35407(STARLINK-35407)
卫星状态:
在轨 (已飞行302 天)
发射日期:
2025-11-06 UTC
国别 :
美国 (US)
星等 :
--
轨道信息
数据来源 国际轨道数据
星历时间: 2026-09-04T12:04:56+0800
15小时前
查看轨道信息
半长轴: 6861.174km
偏心率: 0.0001521
轨道倾角: 43.003°
近地点辐角 273.512°
升交点赤经 284.298°
平近点角 86.556°
近地点: 481.993km
远地点: 484.081km
周期: 94.266分钟
每日圈数: 15.275841
详细信息
固有亮度:
5
最大亮度:
2.5
卫星平台:
Starlink V1.0
覆盖范围:
全球
运营商:
太空探索技术公司
运营商所在国:
美国
制造商(研发单位):
太空探索技术公司
制造商所在国:
美国
使用方式:
暂无
卫星简介
Starlink 计划是 SpaceX 推出的全球卫星互联网项目,通过发射低轨道卫星,为全球尤其是偏远地区提供高速、低延迟的互联网服务。自 2019 年起,Starlink 已部署数千颗卫星,旨在缩小全球数字鸿沟,推动互联网普及。该项目还为军事、航空等行业提供通信支持,带来广泛经济效益。
2D轨道图
3D轨道图
轨道高度分析图
轨道倾角分析图
轨道综合分析图
查看轨道综合分析图